Location: Vancouver
(49.2500°N, 123.1330°W)
Time: 10:42:21
(UTC-08:00)

Oscar 11 - Visible Passes

Search period start: 05 March 2015 00:00
Search period end: 15 March 2015 01:00
Orbit: 615 x 629 km, 97.8° (Epoch: 04 March)

Date Brightness Start Highest point End Pass type
(mag) Time Alt. Az. Time Alt. Az. Time Alt. Az.
05 Mar 8.5 20:04:11 23° NE 20:04:11 23° NE 20:06:36 10° N visible
05 Mar 9.4 21:41:23 21° NW 21:41:23 21° NW 21:43:03 10° NNW visible
06 Mar 8.3 20:22:14 29° NNE 20:22:14 29° NNE 20:24:50 10° N visible
06 Mar 9.8 21:59:26 17° NW 21:59:26 17° NW 22:00:44 10° NW visible
07 Mar 8.1 20:40:17 35° NNE 20:40:17 35° NNE 20:42:58 10° N visible
07 Mar 10.1 22:17:29 13° NW 22:17:29 13° NW 22:18:11 10° NW visible
08 Mar 9.1 20:21:08 12° ENE 20:21:08 12° ENE 20:22:52 10° NNE visible
08 Mar 8.2 21:58:20 38° N 21:58:20 38° N 22:01:01 10° NNW visible
09 Mar 8.8 20:39:10 17° NE 20:39:10 17° NE 20:41:44 10° NNE visible
09 Mar 8.5 22:16:23 35° NNW 22:16:23 35° NNW 22:18:59 10° NNW visible
10 Mar 8.4 20:57:13 23° NE 20:57:13 23° NE 21:00:11 10° N visible
10 Mar 8.9 22:34:26 29° NW 22:34:26 29° NW 22:36:51 10° NNW visible
11 Mar 8.0 21:15:16 31° NE 21:15:16 31° NE 21:18:28 10° N visible
11 Mar 9.4 22:52:28 22° WNW 22:52:28 22° WNW 22:54:34 10° NNW visible
12 Mar 7.7 21:33:18 42° NE 21:33:18 42° NE 21:36:38 10° N visible
12 Mar 9.7 23:10:30 17° WNW 23:10:30 17° WNW 23:12:06 10° NW visible
13 Mar 9.1 20:14:08 10° ENE 20:14:54 11° NE 20:15:57 10° NE visible
13 Mar 7.6 21:51:21 51° N 21:51:21 51° N 21:54:42 10° N visible
13 Mar 10.1 23:28:33 12° WNW 23:28:33 12° WNW 23:29:15 10° WNW visible
14 Mar 8.8 20:32:10 15° ENE 20:32:39 15° ENE 20:35:11 10° NNE visible
14 Mar 7.8 22:09:23 50° NNW 22:09:23 50° NNW 22:12:41 10° NNW visible
